Weather History for Carroll, IA

Change the Weather History Date:

Tuesday, March 12, 2013

  Actual Average Record
Temperature  
Mean Temperature 24 °F -  
Max Temperature 30 °F 43 °F 73 °F (1990)
Min Temperature 17 °F 24 °F -12 °F (1960)
Degree Days  
Heating Degree Days 42    
Moisture  
Dew Point 20 °F    
Average Humidity 83    
Maximum Humidity 93    
Minimum Humidity 74    
Precipitation  
Precipitation 0.00 in - - ()
Sea Level Pressure  
Sea Level Pressure 30.08 in    
Wind  
Wind Speed 17 mph (WNW)    
Max Wind Speed 34 mph    
Max Gust Speed 41 mph    
Visibility 8 miles    
Events Rain , Snow    
Averages and records for this station are not official NWS values.
T = Trace of Precipitation, MM = Missing Value Source: NWS Daily Summary

Daily Weather History Graph

Daily Weather History Graph

Search for Another Location

Airport:

Trip Planner

Search our weather history database for the weather conditions in past years. The results will help you decide how hot, cold, wet, or windy it might be!

Date:

Astronomy

Mar. 12, 2013 Rise Set
Actual Time 7:35 AM CDT 7:22 PM CDT
Civil Twilight 7:07 AM CDT 7:50 PM CDT
Nautical Twilight 6:35 AM CDT 8:22 PM CDT
Astronomical Twilight 6:02 AM CDT 8:55 PM CDT
Moon 7:41 AM CDT (3/12) 8:40 PM CDT (3/12)
Length of Visible Light 12h 42m
Length of Day
11h 46m
New Moon, 1% of the Moon is Illuminated
Mar 12
New Moon
Mar 19
First Quarter
Mar 27
Full
Apr 2
Last Quarter
Apr 10
New

Hourly Weather History & Observations

Time (CDT) Temp. Windchill Dew Point Humidity Pressure Visibility Wind Dir Wind Speed Gust Speed Precip Events Conditions
12:15 AM 17.6 °F 3.7 °F 14.0 °F 86% 29.94 in 10.0 mi West 13.8 mph - N/A   Clear
12:35 AM 17.6 °F 4.3 °F 14.0 °F 86% 29.95 in 10.0 mi West 12.7 mph - N/A   Clear
12:55 AM 19.4 °F 6.0 °F 14.0 °F 80% 29.95 in 10.0 mi West 13.8 mph - N/A   Clear
1:15 AM 17.6 °F 4.3 °F 14.0 °F 86% 29.96 in 10.0 mi West 12.7 mph - N/A   Clear
1:35 AM 19.4 °F 5.5 °F 15.8 °F 86% 29.96 in 10.0 mi WNW 15.0 mph - N/A   Clear
1:55 AM 21.2 °F 8.3 °F 17.6 °F 86% 29.96 in 10.0 mi NW 13.8 mph - N/A   Clear
2:15 AM 23.0 °F 10.6 °F 19.4 °F 86% 29.96 in 10.0 mi NW 13.8 mph - N/A   Clear
2:35 AM 21.2 °F 8.9 °F 17.6 °F 86% 29.97 in - WNW 12.7 mph - N/A   Clear
2:55 AM 21.2 °F 9.5 °F 17.6 °F 86% 29.97 in 10.0 mi WNW 11.5 mph - N/A   Clear
3:15 AM 19.4 °F 6.6 °F 15.8 °F 86% 29.97 in 10.0 mi West 12.7 mph - N/A   Clear
3:35 AM 17.6 °F 2.7 °F 15.8 °F 93% 29.97 in 10.0 mi West 16.1 mph - N/A   Clear
3:55 AM 17.6 °F 3.2 °F 15.8 °F 93% 29.97 in 10.0 mi West 15.0 mph - N/A   Clear
4:15 AM 19.4 °F 6.0 °F 15.8 °F 86% 29.97 in 10.0 mi West 13.8 mph - N/A   Clear
4:35 AM 19.4 °F 5.5 °F 15.8 °F 86% 29.97 in 10.0 mi West 15.0 mph - N/A   Partly Cloudy
4:55 AM 19.4 °F 6.0 °F 15.8 °F 86% 29.96 in 10.0 mi West 13.8 mph - N/A   Clear
5:15 AM 19.4 °F 5.5 °F 17.6 °F 93% 29.97 in 10.0 mi West 15.0 mph - N/A   Clear
5:35 AM 19.4 °F 6.0 °F 17.6 °F 93% 29.96 in 10.0 mi West 13.8 mph - N/A   Clear
5:55 AM 19.4 °F 5.5 °F 17.6 °F 93% 29.97 in 10.0 mi West 15.0 mph - N/A   Clear
6:15 AM 21.2 °F 8.3 °F 19.4 °F 93% 29.97 in 10.0 mi West 13.8 mph - N/A   Mostly Cloudy
6:35 AM 21.2 °F 10.1 °F 17.6 °F 86% 29.97 in 10.0 mi WNW 10.4 mph - N/A   Overcast
6:55 AM 21.2 °F 8.3 °F 19.4 °F 93% 29.98 in 10.0 mi West 13.8 mph - N/A   Mostly Cloudy
7:15 AM 24.8 °F 12.4 °F 21.2 °F 86% 29.98 in 10.0 mi West 15.0 mph - N/A   Overcast
7:35 AM 24.8 °F 13.4 °F 21.2 °F 86% 29.98 in 10.0 mi West 12.7 mph - N/A Rain Light Freezing Rain
7:55 AM 26.6 °F 14.3 °F 23.0 °F 86% 29.99 in 10.0 mi West 16.1 mph - N/A   Mostly Cloudy
8:15 AM 26.6 °F 14.7 °F 23.0 °F 86% 29.99 in 10.0 mi WNW 15.0 mph - N/A   Overcast
8:35 AM 28.4 °F 16.2 °F 24.8 °F 86% 30.00 in 9.0 mi WNW 17.3 mph - N/A   Overcast
8:55 AM 28.4 °F 14.4 °F 24.8 °F 86% 30.01 in 5.0 mi WNW 23.0 mph - N/A Rain Light Freezing Rain
9:15 AM 30.2 °F 17.8 °F 24.8 °F 80% 30.02 in 9.0 mi WNW 19.6 mph 26.5 mph N/A Rain Light Freezing Rain
9:35 AM 30.2 °F 17.4 °F 24.8 °F 80% 30.02 in 10.0 mi NW 20.7 mph 28.8 mph N/A   Mostly Cloudy
9:55 AM 30.2 °F 16.8 °F 24.8 °F 80% 30.03 in 10.0 mi WNW 23.0 mph - N/A   Overcast
10:15 AM 30.2 °F 17.1 °F 24.8 °F 80% 30.04 in 9.0 mi WNW 21.9 mph 27.6 mph N/A   Overcast
10:35 AM 30.2 °F 17.1 °F 24.8 °F 80% 30.05 in 9.0 mi NW 21.9 mph 29.9 mph N/A   Overcast
10:55 AM 28.4 °F 13.5 °F 24.8 °F 86% 30.05 in 5.0 mi WNW 26.5 mph 35.7 mph N/A   Haze
11:15 AM 30.2 °F 15.2 °F 24.8 °F 80% 30.06 in 4.0 mi WNW 29.9 mph 36.8 mph N/A   Haze
11:35 AM 30.2 °F 15.7 °F 24.8 °F 80% 30.06 in 3.0 mi NW 27.6 mph 39.1 mph N/A   Mostly Cloudy
11:55 AM 30.2 °F 15.4 °F 24.8 °F 80% 30.07 in 4.0 mi WNW 28.8 mph 34.5 mph N/A   Haze
12:15 PM 30.2 °F 15.7 °F 24.8 °F 80% 30.08 in 4.0 mi NW 27.6 mph 35.7 mph N/A   Overcast
12:35 PM 30.2 °F 15.4 °F 24.8 °F 80% 30.08 in 4.0 mi NW 28.8 mph 39.1 mph N/A Snow Light Snow
12:55 PM 30.2 °F 14.3 °F 24.8 °F 80% 30.09 in 3.0 mi WNW 34.5 mph 41.4 mph N/A Snow Light Snow
1:15 PM 30.2 °F 14.9 °F 24.8 °F 80% 30.09 in 3.0 mi WNW 31.1 mph 38.0 mph N/A Rain Light Freezing Rain
1:35 PM 30.2 °F 15.7 °F 24.8 °F 80% 30.09 in 3.0 mi WNW 27.6 mph 38.0 mph N/A   Haze
1:55 PM 30.2 °F 14.7 °F 24.8 °F 80% 30.10 in 3.0 mi WNW 32.2 mph 40.3 mph N/A   Haze
2:15 PM 30.2 °F 14.9 °F 24.8 °F 80% 30.10 in 3.0 mi WNW 31.1 mph 38.0 mph N/A Rain Light Freezing Rain
2:35 PM 30.2 °F 15.7 °F 24.8 °F 80% 30.10 in 1.8 mi WNW 27.6 mph 38.0 mph N/A   Overcast
2:55 PM 28.4 °F 13.8 °F 24.8 °F 86% 30.11 in 1.5 mi NW 25.3 mph 34.5 mph N/A Snow Light Snow
3:15 PM 28.4 °F 15.4 °F 24.8 °F 86% 30.12 in 8.0 mi NW 19.6 mph 26.5 mph N/A   Mostly Cloudy
3:35 PM 28.4 °F 14.4 °F 23.0 °F 80% 30.12 in 5.0 mi NW 23.0 mph 31.1 mph N/A Snow Light Snow
3:55 PM 28.4 °F 13.5 °F 21.2 °F 74% 30.13 in 7.0 mi NW 26.5 mph 33.4 mph N/A   Mostly Cloudy
4:15 PM 28.4 °F 14.4 °F 21.2 °F 74% 30.14 in 7.0 mi NW 23.0 mph 33.4 mph N/A   Mostly Cloudy
4:35 PM 26.6 °F 12.7 °F 21.2 °F 80% 30.14 in 7.0 mi NW 20.7 mph 27.6 mph N/A Snow Light Snow
4:55 PM 26.6 °F 12.7 °F 21.2 °F 80% 30.15 in 8.0 mi NW 20.7 mph 26.5 mph N/A Snow Light Snow
5:15 PM 26.6 °F 12.7 °F 23.0 °F 86% 30.15 in 8.0 mi NW 20.7 mph - N/A Snow Light Snow
5:35 PM 26.6 °F 12.4 °F 21.2 °F 80% 30.16 in 10.0 mi NW 21.9 mph 28.8 mph N/A   Overcast
5:55 PM 26.6 °F 11.7 °F 23.0 °F 86% 30.16 in 6.0 mi NW 24.2 mph - N/A Snow Light Snow
6:15 PM 26.6 °F 12.4 °F 21.2 °F 80% 30.17 in 10.0 mi NW 21.9 mph - N/A Rain Light Freezing Rain
6:35 PM 26.6 °F 12.4 °F 19.4 °F 74% 30.17 in 10.0 mi NW 21.9 mph 28.8 mph N/A   Overcast
6:55 PM 24.8 °F 10.7 °F 19.4 °F 80% 30.18 in 10.0 mi NW 19.6 mph - N/A   Partly Cloudy
7:15 PM 24.8 °F 11.1 °F 19.4 °F 80% 30.19 in 10.0 mi NW 18.4 mph 25.3 mph N/A   Clear
7:35 PM 24.8 °F 11.5 °F 19.4 °F 80% 30.19 in 10.0 mi WNW 17.3 mph - N/A   Scattered Clouds
7:55 PM 24.8 °F 12.4 °F 17.6 °F 74% 30.20 in 10.0 mi WNW 15.0 mph 20.7 mph N/A   Scattered Clouds
8:15 PM 24.8 °F 12.4 °F 17.6 °F 74% 30.21 in 10.0 mi NW 15.0 mph 21.9 mph N/A   Partly Cloudy
8:35 PM 24.8 °F 11.5 °F 17.6 °F 74% 30.21 in 10.0 mi NW 17.3 mph - N/A   Mostly Cloudy
8:55 PM 24.8 °F 11.1 °F 19.4 °F 80% 30.22 in 10.0 mi NW 18.4 mph - N/A   Overcast
9:15 PM 24.8 °F 11.1 °F 19.4 °F 80% 30.22 in 10.0 mi NW 18.4 mph 26.5 mph N/A   Overcast
9:35 PM 24.8 °F 11.1 °F 19.4 °F 80% 30.23 in 10.0 mi NW 18.4 mph 27.6 mph N/A   Mostly Cloudy
9:55 PM 23.0 °F 8.3 °F 17.6 °F 80% 30.23 in 10.0 mi NW 19.6 mph 25.3 mph N/A   Clear
10:15 PM 23.0 °F 9.2 °F 17.6 °F 80% 30.24 in 10.0 mi NW 17.3 mph - N/A   Clear
10:35 PM 23.0 °F 9.6 °F 17.6 °F 80% 30.24 in 10.0 mi NW 16.1 mph - N/A   Clear
10:55 PM 23.0 °F 9.2 °F 17.6 °F 80% 30.25 in 10.0 mi WNW 17.3 mph - N/A   Clear
11:15 PM 23.0 °F 9.6 °F 17.6 °F 80% 30.25 in 10.0 mi NW 16.1 mph - N/A   Clear
11:35 PM 23.0 °F 8.7 °F 15.8 °F 74% 30.25 in 10.0 mi NW 18.4 mph - N/A   Clear
11:55 PM 23.0 °F 9.6 °F 15.8 °F 74% 30.26 in 10.0 mi NW 16.1 mph 21.9 mph N/A   Clear